Location: Newark
(51.5033°N, 0.1199°W)
Time: 05:14:59
(UTC+00:00)

ITAMSAT 1 - Visible Passes

Search period start: 20 September 2019 00:00
Search period end: 30 September 2019 00:00
Orbit: 783 x 797 km, 98.9° (Epoch: 19 September)

Date Brightness Start Highest point End Pass type
(mag) Time Alt. Az. Time Alt. Az. Time Alt. Az.
20 Sep 10.1 04:29:30 10° NE 04:33:47 25° E 04:38:02 10° SSE visible
21 Sep 10.6 04:01:03 10° NE 04:03:57 15° E 04:06:52 10° ESE visible
22 Sep 8.7 05:09:36 10° NNE 05:14:41 51° E 05:19:44 10° S visible
23 Sep 9.8 04:40:29 10° NNE 04:45:03 30° E 04:49:36 10° SSE visible
24 Sep 10.5 04:11:45 10° NE 04:15:17 18° E 04:18:48 10° SE visible
25 Sep 11.1 03:45:00 10° ENE 03:45:23 10° E 03:45:45 10° E visible
26 Sep 9.4 04:51:30 10° NNE 04:56:18 37° E 05:01:06 10° SSE visible
27 Sep 10.3 04:22:35 10° NE 04:26:36 22° E 04:30:35 10° SE visible
28 Sep 10.8 03:54:28 10° ENE 03:56:45 13° E 03:59:00 10° ESE visible
29 Sep 9.0 05:02:33 10° NNE 05:07:32 44° E 05:12:31 10° S visible
